Location: Nag� el-Bal�da
(24.1500°N, 32.8667°E)
Time: 00:00:44
(UTC+00:00)

Daily predictions for brighter satellites

Satellite Brightness Start Highest point End
(mag) Time Altitude Azimuth Time Altitude Azimuth Time Altitude Azimuth
SL-16 R/B 4.1 01:01:01 26° ENE 01:01:01 26° ENE 01:05:08 10° ESE
Cosmos 2322 Rocket 4.2 01:09:39 19° NE 01:11:43 24° ENE 01:16:11 10° ESE
Lacrosse 5 4.4 01:16:51 13° NNE 01:17:45 14° NE 01:20:16 10° ENE
USA 234 3.1 01:42:30 10° NE 01:49:02 77° NW 01:49:48 69° WSW
Milstar 3 4.5 01:43:06 16° SSW 01:50:37 34° SSE 01:57:08 10° E
Skynet4D Del rocket 4.1 01:53:52 62° NW 01:54:53 71° N 02:02:25 10° E
Cosmos 371 Rocket 3.4 01:54:50 70° NE 01:55:04 71° ENE 01:59:53 10° SSE
SME Rocket 4.1 01:49:08 10° SSE 01:56:37 74° ENE 02:00:27 18° N
Cosmos 1953 4.3 01:54:14 10° NNE 01:57:42 29° E 02:01:11 10° SE
SL-14 R/B 4.1 02:01:09 10° SSE 02:04:57 49° E 02:08:45 10° NNE
Cosmos 1975 Rocket 3.1 02:01:11 10° S 02:05:35 80° E 02:10:01 10° N
ATLAS 2A CENTAUR R/B 2.3 02:08:01 35° SSE 02:08:01 35° SSE 02:12:06 10° ESE
Cosmos 1959 Rocket 4.3 02:03:00 10° N 02:09:03 68° W 02:15:12 10° S
Cosmos 864 Rocket 4.4 02:05:55 10° NNW 02:12:03 65° W 02:18:15 10° S
Atlas Centaur 2 2.5 02:11:37 46° W 02:13:47 70° NNW 02:19:47 10° ENE
SJ-6F 4.4 02:11:07 10° NNE 02:15:18 80° ESE 02:19:27 10° S
Cosmos 44 4.5 02:19:33 23° SSW 02:19:33 23° SSW 02:21:34 10° S
Cosmos 2366 rocket 4.0 02:12:10 10° NNW 02:18:20 55° W 02:24:29 10° SSW
USA 229 DEB 4.3 02:16:24 37° WNW 02:18:26 44° WSW 02:25:47 10° S
USA 229 4.3 02:16:23 37° WNW 02:18:33 44° WSW 02:25:56 10° S
METEOR-M 4.2 02:13:48 10° N 02:18:56 50° WNW 02:20:39 36° SW
Cosmos 2237 4.2 02:14:03 12° NNW 02:19:27 84° ENE 02:25:08 10° SSE
NOSS 3-3 (A) 3.6 02:22:21 31° SW 02:24:51 60° WNW 02:30:41 10° NNE
NOSS 3-3 (C) 3.6 02:22:19 30° SW 02:24:56 61° WNW 02:30:46 10° NNE
GPS 2-17 Rocket1 3.8 02:24:06 34° SW 02:25:38 46° S 02:30:06 10° E
SEDSat Delta rocket 4.2 02:25:23 29° NNW 02:26:49 35° N 02:31:00 10° ENE
Cosmos 2297 Rocket 4.3 02:24:48 10° SSE 02:29:33 29° ESE 02:34:19 10° NE
ATLAS 3B CENTAUR R/B 3.9 02:25:38 13° SSW 02:30:15 41° SE 02:40:01 10° E
Okean 1 Rocket 4.5 02:39:51 22° SW 02:39:51 22° SW 02:41:57 10° SSW
Nadezhda 3 Rocket 4.0 02:34:33 10° SSW 02:40:29 52° W 02:46:28 10° N
SL-4 R/B 4.4 02:39:01 10° N 02:41:54 18° NE 02:44:40 10° E
Cosmos 304 Rocket 3.7 02:39:18 10° NNW 02:44:02 60° WSW 02:48:45 10° S
SL-16 R/B 3.0 02:43:00 25° WNW 02:44:26 28° WSW 02:49:10 10° SSW
ASC 2 Rocket 3.7 02:46:36 24° W 02:49:15 57° SSW 02:55:24 10° ESE
ASTRO E2 3.9 02:49:37 21° NW 02:51:17 29° N 02:54:46 10° NE
Meteor 1-16 Rocket 4.3 02:49:34 10° NNW 02:54:39 46° W 02:59:41 10° SSW
Chandra Rocket (1) 2.7 02:52:42 10° SW 02:55:26 29° SSE 02:57:42 10° E
Cosmos 2322 Rocket 2.9 02:51:36 14° NW 02:55:37 31° WSW 03:00:33 10° SSW
Cosmos 2227 Rocket 3.9 02:52:30 10° S 02:57:38 37° ESE 03:02:47 10° NE
Cosmos 1867 3.8 02:55:09 10° SW 03:00:20 47° WNW 03:05:35 10° N
Cosmos 2219 Rocket 3.2 02:54:54 10° N 03:00:23 49° ENE 03:05:50 10° SE
Lacrosse 5 1.8 02:56:07 10° NW 03:01:03 67° WSW 03:06:04 10° SSE
Meteor 2-20 4.4 02:55:30 10° S 03:01:36 81° W 03:07:42 10° N
H-2A ROCKET BODY 2.1 02:56:08 16° WNW 03:01:51 49° SSW 03:04:39 10° SE
YAOGAN 6 2.7 02:58:40 10° N 03:02:08 49° WNW 03:05:37 10° SSW
Cosmos 1821 Rocket 4.0 02:56:47 10° NNW 03:02:43 53° W 03:08:35 10° SSW
Cosmos 2360 Rocket 2.4 02:59:00 10° NNW 03:04:25 48° WSW 03:09:49 10° S
Cosmos 1025 Rocket 3.9 03:02:16 10° SW 03:05:57 27° W 03:09:38 10° NNW
SJ-12 4.2 03:02:39 10° N 03:06:29 41° WNW 03:10:18 10° SSW
Cosmos 1680 Rocket 4.4 03:03:06 10° SW 03:07:29 27° WNW 03:11:54 10° NNW
FUSE 4.2 03:04:37 15° W 03:08:59 59° SSW 03:14:15 10° ESE
Cosmos 1934 Rocket 4.1 03:04:50 10° N 03:11:00 85° E 03:17:15 10° S
GOES 2 Rocket 3.1 03:07:48 14° WNW 03:11:21 65° NNE 03:15:36 10° E
ADEOS 3.5 03:08:47 10° N 03:14:00 83° WNW 03:19:13 10° SSW
OAO 2 Rocket 3.8 03:10:19 10° NW 03:15:15 56° NNE 03:20:07 10° ESE
Envisat 3.2 03:10:49 10° N 03:15:39 46° WNW 03:20:29 10° SSW
Cosmos 2333 Rocket 2.3 03:10:30 10° NNW 03:16:17 88° WSW 03:22:02 10° SSE
Delta 2 Rocket 4.1 03:10:03 12° W 03:16:32 74° SSW 03:22:39 10° ESE
Intelsat 5-2 Rocket 2.6 03:17:46 11° W 03:20:16 84° S 03:25:46 10° E
Meteor 2-5 Rocket 4.1 03:17:23 10° SSW 03:22:31 40° W 03:27:42 10° N
SL-24 R/B - RUBIN 2 3.9 03:19:00 10° NW 03:23:05 42° WSW 03:27:08 10° S
CZ-4C R/B 3.2 03:15:01 10° NNW 03:23:07 74° WSW 03:31:49 10° SSE
CZ-4B R/B 3.5 03:19:07 10° NNE 03:23:21 65° ESE 03:27:20 10° S
Cosmos 1536 Rocket 4.0 03:21:55 10° SSW 03:26:04 40° W 03:30:11 10° NNW
COSMO-SKYMED 1 2.5 03:24:15 10° S 03:28:33 70° W 03:32:52 10° NNW
